N7WWK-1 Weather Reports


Display with metric or nautical units.
time (UTC)temp
F
wind
direction
speed
MPH
gust
MPH
rain 1hr
in
rain 24hr
in
rain mn
in
humidity
%
barometer
mb
20260503193005 75 94 3.0 10.0 0.00 0.00 0.00 53 1015.7
20260503192005 75 96 3.0 11.0 0.00 0.00 0.00 52 1016.0
20260503191005 76 88 3.0 8.0 0.00 0.00 0.00 51 1016.1
20260503190005 76 86 2.0 11.0 0.00 0.00 0.00 51 1016.1
20260503185005 76 77 3.0 10.0 0.00 0.00 0.00 53 1016.3
20260503184004 74 93 2.0 7.0 0.00 0.00 0.00 54 1016.4
20260503183005 75 91 2.0 6.0 0.00 0.00 0.00 53 1016.6
20260503182006 73 54 3.0 11.0 0.00 0.00 0.00 56 1016.7
20260503181216 76 76 3.0 10.0 0.00 0.00 0.00 48 1016.7
20260503180005 76 80 2.0 10.0 0.00 0.06 0.00 52 1016.7
20260503175218 75 79 2.0 8.0 0.00 0.10 0.00 53 1016.6
20260503174005 74 83 2.0 6.0 0.00 0.14 0.00 55 1016.6
20260503173005 74 83 2.0 8.0 0.00 0.16 0.00 56 1016.9
20260503172004 75 82 2.0 8.0 0.00 0.17 0.00 56 1017.0
20260503171216 74 89 3.0 8.0 0.00 0.19 0.00 57 1016.9
20260503151005 70 73 3.0 11.0 0.00 0.22 0.00 71 1017.0
20260503131004 63 349 2.0 7.0 0.00 0.22 0.00 88 1016.5
20260503110216 58 352 2.0 4.0 0.00 0.22 0.00 99 1015.4
20260503081005 58 22 1.0 3.0 0.00 0.22 0.00 99 1014.3
20260503072005 59 21 1.0 3.0 0.00 0.22 0.00 98 1013.9
20260503071218 59 56 1.0 2.0 0.00 0.22 0.00 98 1013.9
20260503055004 60 7 1.0 3.0 0.00 0.22 0.00 96 1013.6
20260503054005 60 16 1.0 3.0 0.00 0.22 0.00 96 1013.9
20260503053004 61 11 2.0 6.0 0.00 0.22 0.00 96 1013.8
20260503052005 61 31 1.0 2.0 0.00 0.22 0.00 95 1013.7
20260503051004 61 24 1.0 3.0 0.00 0.22 0.00 95 1013.7
20260503050005 61 19 1.0 3.0 0.00 0.22 0.00 95 1013.9
20260503045004 62 21 1.0 3.0 0.00 0.22 0.00 94 1013.5
20260503044005 62 357 1.0 3.0 0.00 0.22 0.00 94 1013.5
20260503043004 62 36 1.0 3.0 0.00 0.22 0.00 93 1013.3
20260503042005 62 343 2.0 6.0 0.00 0.22 0.00 93 1013.2
20260503041214 63 341 2.0 6.0 0.00 0.22 0.00 92 1012.8
20260503040020 63 339 2.0 5.0 0.00 0.22 0.00 92 1013.0
20260503035216 63 7 3.0 7.0 0.00 0.22 0.22 92 1012.7
20260503034217 63 348 3.0 7.0 0.00 0.22 0.22 92 1013.0
20260503033005 63 340 2.0 8.0 0.00 0.22 0.22 92 1012.7
20260503032214 63 331 3.0 8.0 0.00 0.22 0.22 92 1012.6
20260503031005 63 341 2.0 6.0 0.00 0.22 0.22 92 1012.5
20260503030005 63 360 2.0 7.0 0.00 0.22 0.22 92 1012.3
20260503025217 63 340 3.0 7.0 0.00 0.22 0.22 93 1012.4
20260503024004 63 346 3.0 9.0 0.00 0.22 0.22 93 1012.1
20260503023214 63 335 3.0 9.0 0.00 0.22 0.22 93 1012.0
20260503022004 63 345 2.0 7.0 0.00 0.22 0.22 93 1011.6
20260503021005 63 357 2.0 8.0 0.00 0.22 0.22 93 1011.5
20260503020005 63 348 2.0 7.0 0.00 0.22 0.22 93 1011.3
20260503015005 63 1 4.0 6.0 0.00 0.22 0.22 93 1011.5
20260503014004 63 348 3.0 10.0 0.00 0.22 0.22 94 1011.1
20260503013005 63 343 4.0 9.0 0.00 0.22 0.22 94 1011.2
20260503012005 64 327 3.0 9.0 0.00 0.22 0.22 93 1010.9
20260503011005 64 327 3.0 6.0 0.00 0.22 0.22 93 1011.0
20260503010005 64 343 4.0 10.0 0.00 0.22 0.22 93 1010.8
20260503005218 64 342 4.0 10.0 0.00 0.22 0.22 93 1010.5
20260503004005 65 352 5.0 13.0 0.00 0.22 0.22 93 1010.3
20260503003004 67 352 4.0 10.0 0.00 0.22 0.22 93 1010.0
20260503002005 68 349 4.0 15.0 0.00 0.22 0.22 91 1009.7
20260503001004 69 352 3.0 9.0 0.00 0.22 0.22 89 1009.2
20260503000005 70 355 2.0 6.0 0.00 0.22 0.22 89 1009.2
20260502235004 70 351 2.0 4.0 0.00 0.22 0.22 88 1009.1
20260502234005 70 355 2.0 7.0 0.00 0.22 0.22 88 1008.6
20260502233004 71 345 3.0 8.0 0.00 0.22 0.22 88 1009.1
20260502232005 71 25 1.0 3.0 0.00 0.22 0.22 92 1008.5
20260502231005 71 7 1.0 2.0 0.00 0.22 0.22 92 1008.5
20260502230005 71 340 2.0 4.0 0.00 0.22 0.22 93 1008.2
20260502225214 71 8 2.0 6.0 0.00 0.22 0.22 93 1008.1
20260502224004 71 349 2.0 4.0 0.00 0.22 0.22 93 1008.0
20260502223005 71 14 1.0 4.0 0.00 0.22 0.22 93 1007.8
20260502222005 72 11 1.0 4.0 0.00 0.22 0.22 93 1007.6
20260502221005 73 33 0.0 2.0 0.00 0.22 0.22 91 1007.5
20260502220005 73 217 1.0 2.0 0.00 0.22 0.22 90 1007.4
20260502215005 73 258 1.0 6.0 0.00 0.22 0.22 90 1007.1
20260502214004 73 228 1.0 3.0 0.00 0.22 0.22 89 1006.9
20260502213217 74 247 1.0 3.0 0.00 0.22 0.22 89 1006.5
20260502212004 73 18 1.0 5.0 0.00 0.22 0.22 90 1005.9
20260502211004 73 313 2.0 6.0 0.00 0.22 0.22 90 1006.3
20260502210005 73 261 2.0 7.0 0.00 0.22 0.22 90 1006.7
20260502205004 72 281 2.0 3.0 0.00 0.22 0.22 90 1007.0
20260502204004 73 241 2.0 7.0 0.00 0.22 0.22 90 1007.1
20260502203004 73 277 2.0 4.0 0.00 0.22 0.22 91 1007.4
20260502202005 72 246 2.0 7.0 0.00 0.22 0.22 91 1007.4
20260502201004 72 218 2.0 4.0 0.00 0.22 0.22 91 1007.2
20260502200005 71 221 2.0 5.0 0.00 0.22 0.22 91 1007.4
20260502195005 70 238 2.0 8.0 0.00 0.22 0.22 93 1007.5
20260502194005 69 222 2.0 7.0 0.00 0.22 0.22 93 1007.7